| time (UTC) | temp C | wind direction | speed KPH | gust KPH | rain 1hr cm | rain 24hr cm | rain mn cm | humidity % | barometer mb |
| 20260507142505 | 13 | 0.0 | 0.0 | 0.00 | 0.00 | 0.00 | 51 | 1014.7 | |
| 20260507142007 | 13 | 0.0 | 0.0 | 0.00 | 0.00 | 0.00 | 55 | 1014.8 | |
| 20260507141524 | 13 | 0.0 | 0.0 | 0.00 | 0.00 | 0.00 | 56 | 1014.8 | |
| 20260507141008 | 13 | 0.0 | 0.0 | 0.00 | 0.00 | 0.00 | 51 | 1014.8 | |
| 20260507140507 | 13 | 0.0 | 0.0 | 0.00 | 0.00 | 0.00 | 56 | 1015.0 | |
| 20260507140030 | 12 | 0.0 | 0.0 | 0.00 | 0.03 | 0.00 | 54 | 1015.0 | |
| 20260507135505 | 12 | 0.0 | 0.0 | 0.00 | 0.03 | 0.00 | 59 | 1015.0 | |
| 20260507135004 | 12 | 0.0 | 0.0 | 0.00 | 0.03 | 0.00 | 61 | 1014.9 | |
| 20260507134516 | 12 | 0.0 | 0.0 | 0.00 | 0.03 | 0.00 | 59 | 1014.9 | |
| 20260507134006 | 12 | 0.0 | 0.0 | 0.00 | 0.03 | 0.00 | 63 | 1015.0 | |
| 20260507133506 | 11 | 0.0 | 0.0 | 0.00 | 0.03 | 0.00 | 65 | 1015.1 | |
| 20260507133020 | 10 | 0.0 | 0.0 | 0.00 | 0.03 | 0.00 | 77 | 1015.2 | |
| 20260507132505 | 9 | 0.0 | 0.0 | 0.00 | 0.03 | 0.00 | 73 | 1015.3 | |
| 20260507132011 | 9 | 0.0 | 0.0 | 0.00 | 0.03 | 0.00 | 80 | 1015.2 | |
| 20260507131525 | 8 | 0.0 | 0.0 | 0.00 | 0.03 | 0.00 | 86 | 1015.4 | |
| 20260507131009 | 8 | 0.0 | 0.0 | 0.00 | 0.03 | 0.00 | 90 | 1015.5 | |
| 20260507130508 | 8 | 0.0 | 0.0 | 0.00 | 0.03 | 0.00 | 92 | 1015.5 | |
| 20260507130016 | 8 | 0.0 | 0.0 | 0.00 | 0.03 | 0.00 | 92 | 1015.5 | |
| 20260507125506 | 8 | 0.0 | 0.0 | 0.00 | 0.03 | 0.00 | 92 | 1015.7 | |
| 20260507125008 | 7 | 0.0 | 0.0 | 0.00 | 0.05 | 0.00 | 92 | 1015.8 | |
| 20260507124525 | 7 | 0.0 | 0.0 | 0.00 | 0.05 | 0.00 | 92 | 1015.7 | |
| 20260507124007 | 7 | 0.0 | 0.0 | 0.00 | 0.05 | 0.00 | 92 | 1015.7 | |
| 20260507123503 | 7 | 0.0 | 0.0 | 0.00 | 0.05 | 0.00 | 92 | 1015.7 | |
| 20260507123016 | 6 | 0.0 | 0.0 | 0.00 | 0.05 | 0.00 | 92 | 1015.6 | |
| 20260507122506 | 6 | 0.0 | 0.0 | 0.00 | 0.05 | 0.00 | 92 | 1015.5 | |
| 20260507122009 | 6 | 0.0 | 0.0 | 0.00 | 0.05 | 0.00 | 92 | 1015.5 | |
| 20260507121522 | 6 | 0.0 | 0.0 | 0.00 | 0.05 | 0.00 | 92 | 1015.5 | |
| 20260507121007 | 6 | 0.0 | 0.0 | 0.00 | 0.05 | 0.00 | 92 | 1015.5 | |
| 20260507120508 | 6 | 0.0 | 0.0 | 0.00 | 0.05 | 0.00 | 91 | 1015.5 | |
| 20260507120032 | 6 | 0.0 | 0.0 | 0.00 | 0.05 | 0.00 | 91 | 1015.5 | |
| 20260507115508 | 6 | 0.0 | 0.0 | 0.00 | 0.05 | 0.00 | 91 | 1015.5 | |
| 20260507115010 | 6 | 0.0 | 0.0 | 0.00 | 0.05 | 0.00 | 91 | 1015.5 | |
| 20260507114521 | 5 | 0.0 | 0.0 | 0.00 | 0.05 | 0.00 | 91 | 1015.4 | |
| 20260507114009 | 5 | 0.0 | 0.0 | 0.00 | 0.05 | 0.00 | 90 | 1015.4 | |
| 20260507113509 | 5 | 0.0 | 0.0 | 0.00 | 0.05 | 0.00 | 90 | 1015.2 | |
| 20260507113015 | 5 | 0.0 | 0.0 | 0.00 | 0.05 | 0.00 | 90 | 1015.2 | |
| 20260507112507 | 5 | 0.0 | 0.0 | 0.00 | 0.05 | 0.00 | 90 | 1015.1 | |
| 20260507112006 | 5 | 0.0 | 0.0 | 0.00 | 0.05 | 0.00 | 90 | 1015.1 | |
| 20260507111520 | 5 | 0.0 | 0.0 | 0.00 | 0.05 | 0.00 | 90 | 1015.1 | |
| 20260507111009 | 5 | 0.0 | 0.0 | 0.00 | 0.05 | 0.00 | 89 | 1015.0 | |
| 20260507110506 | 6 | 0.0 | 0.0 | 0.00 | 0.05 | 0.00 | 89 | 1015.0 | |
| 20260507110026 | 6 | 0.0 | 0.0 | 0.00 | 0.08 | 0.00 | 89 | 1014.9 | |
| 20260507105506 | 6 | 0.0 | 0.0 | 0.00 | 0.08 | 0.00 | 89 | 1014.9 | |
| 20260507105007 | 6 | 0.0 | 0.0 | 0.00 | 0.08 | 0.00 | 89 | 1014.8 | |
| 20260507104526 | 6 | 0.0 | 0.0 | 0.00 | 0.08 | 0.00 | 89 | 1014.7 | |
| 20260507104011 | 6 | 0.0 | 0.0 | 0.00 | 0.08 | 0.00 | 89 | 1014.7 | |
| 20260507103506 | 6 | 0.0 | 0.0 | 0.00 | 0.08 | 0.00 | 89 | 1014.6 | |
| 20260507103027 | 6 | 0.0 | 0.0 | 0.00 | 0.08 | 0.00 | 89 | 1014.7 | |
| 20260507102509 | 6 | 0.0 | 0.0 | 0.00 | 0.08 | 0.00 | 89 | 1014.6 | |
| 20260507102010 | 6 | 0.0 | 0.0 | 0.00 | 0.10 | 0.00 | 88 | 1014.7 | |
| 20260507101534 | 6 | 0.0 | 0.0 | 0.00 | 0.10 | 0.00 | 88 | 1014.7 | |
| 20260507101012 | 6 | 0.0 | 0.0 | 0.00 | 0.10 | 0.00 | 88 | 1014.7 | |
| 20260507100506 | 6 | 0.0 | 0.0 | 0.00 | 0.10 | 0.00 | 88 | 1014.6 | |
| 20260507100022 | 6 | 0.0 | 0.0 | 0.00 | 0.13 | 0.00 | 88 | 1014.5 | |
| 20260507095507 | 6 | 0.0 | 0.0 | 0.00 | 0.13 | 0.00 | 88 | 1014.4 | |
| 20260507095003 | 6 | 0.0 | 0.0 | 0.00 | 0.13 | 0.00 | 88 | 1014.4 | |
| 20260507094504 | 7 | 0.0 | 0.0 | 0.00 | 0.13 | 0.00 | 88 | 1014.4 | |
| 20260507094003 | 7 | 0.0 | 0.0 | 0.00 | 0.15 | 0.00 | 87 | 1014.4 | |
| 20260507093503 | 7 | 0.0 | 0.0 | 0.00 | 0.15 | 0.00 | 87 | 1014.4 | |
| 20260507093008 | 7 | 0.0 | 0.0 | 0.00 | 0.15 | 0.00 | 87 | 1014.4 | |
| 20260507092504 | 7 | 0.0 | 0.0 | 0.00 | 0.15 | 0.00 | 87 | 1014.3 | |
| 20260507092005 | 7 | 0.0 | 0.0 | 0.00 | 0.18 | 0.00 | 87 | 1014.4 | |
| 20260507091511 | 7 | 0.0 | 0.0 | 0.00 | 0.18 | 0.00 | 88 | 1014.4 | |
| 20260507091007 | 7 | 0.0 | 0.0 | 0.00 | 0.18 | 0.00 | 88 | 1014.5 | |
| 20260507090507 | 7 | 0.0 | 0.0 | 0.00 | 0.18 | 0.00 | 88 | 1014.5 | |
| 20260507090008 | 7 | 0.0 | 0.0 | 0.00 | 0.20 | 0.00 | 88 | 1014.5 | |
| 20260507085503 | 7 | 0.0 | 0.0 | 0.00 | 0.23 | 0.00 | 88 | 1014.6 | |
| 20260507085006 | 7 | 0.0 | 0.0 | 0.00 | 0.23 | 0.00 | 88 | 1014.5 | |
| 20260507084504 | 7 | 0.0 | 0.0 | 0.00 | 0.23 | 0.00 | 88 | 1014.5 | |
| 20260507084003 | 7 | 0.0 | 0.0 | 0.00 | 0.30 | 0.00 | 88 | 1014.4 | |
| 20260507083507 | 8 | 0.0 | 0.0 | 0.00 | 0.38 | 0.00 | 88 | 1014.3 | |
| 20260507083004 | 8 | 0.0 | 0.0 | 0.00 | 0.43 | 0.00 | 87 | 1014.4 | |
| 20260507082503 | 8 | 0.0 | 0.0 | 0.00 | 0.48 | 0.00 | 87 | 1014.4 | |
| 20260507082004 | 8 | 0.0 | 0.0 | 0.00 | 0.51 | 0.00 | 87 | 1014.3 | |
| 20260507081511 | 8 | 0.0 | 0.0 | 0.00 | 0.53 | 0.00 | 87 | 1014.2 | |
| 20260507081003 | 8 | 0.0 | 0.0 | 0.00 | 0.56 | 0.00 | 87 | 1014.4 | |
| 20260507080503 | 8 | 0.0 | 0.0 | 0.00 | 0.56 | 0.00 | 87 | 1014.4 | |
| 20260507080015 | 8 | 0.0 | 0.0 | 0.00 | 0.64 | 0.00 | 86 | 1014.5 | |
| 20260507075503 | 8 | 0.0 | 0.0 | 0.00 | 0.71 | 0.00 | 86 | 1014.3 | |
| 20260507075003 | 8 | 0.0 | 0.0 | 0.00 | 0.81 | 0.00 | 85 | 1014.4 | |
| 20260507074514 | 8 | 0.0 | 0.0 | 0.00 | 0.99 | 0.00 | 84 | 1014.5 | |
| 20260507074008 | 8 | 0.0 | 0.0 | 0.00 | 1.02 | 0.00 | 84 | 1014.5 | |
| 20260507073507 | 8 | 0.0 | 0.0 | 0.00 | 1.04 | 0.00 | 84 | 1014.2 | |
| 20260507073010 | 8 | 0.0 | 0.0 | 0.00 | 1.09 | 0.00 | 84 | 1014.2 | |
| 20260507072508 | 8 | 0.0 | 0.0 | 0.00 | 1.09 | 0.00 | 83 | 1014.4 | |
| 20260507072009 | 8 | 0.0 | 0.0 | 0.00 | 1.09 | 0.00 | 82 | 1014.6 | |
| 20260507071506 | 8 | 0.0 | 0.0 | 0.00 | 1.09 | 0.00 | 82 | 1014.6 | |
| 20260507071007 | 8 | 0.0 | 0.0 | 0.00 | 1.09 | 0.00 | 82 | 1014.5 | |
| 20260507070503 | 8 | 0.0 | 0.0 | 0.00 | 1.12 | 0.00 | 81 | 1014.7 | |
| 20260507070013 | 8 | 0.0 | 0.0 | 0.00 | 1.12 | 0.00 | 81 | 1014.6 | |
| 20260507065503 | 8 | 0.0 | 0.0 | 0.00 | 1.12 | 0.00 | 81 | 1014.6 | |
| 20260507065004 | 8 | 0.0 | 0.0 | 0.00 | 1.12 | 0.00 | 80 | 1014.6 | |
| 20260507064524 | 8 | 0.0 | 0.0 | 0.00 | 1.14 | 0.00 | 80 | 1014.7 | |
| 20260507064003 | 9 | 0.0 | 0.0 | 0.00 | 1.14 | 0.00 | 79 | 1014.7 | |
| 20260507063507 | 9 | 0.0 | 0.0 | 0.00 | 1.14 | 0.00 | 78 | 1014.5 | |
| 20260507063025 | 9 | 0.0 | 0.0 | 0.00 | 1.14 | 0.00 | 77 | 1014.4 | |
| 20260507062509 | 9 | 0.0 | 0.0 | 0.00 | 1.14 | 0.00 | 76 | 1014.4 | |
| 20260507062002 | 9 | 0.0 | 0.0 | 0.00 | 1.17 | 0.00 | 76 | 1014.5 | |
| 20260507061518 | 9 | 0.0 | 0.0 | 0.00 | 1.17 | 0.00 | 77 | 1014.5 | |
| 20260507061008 | 9 | 0.0 | 0.0 | 0.00 | 1.17 | 0.00 | 78 | 1014.6 | |
| 20260507060511 | 10 | 0.0 | 0.0 | 0.00 | 1.17 | 0.00 | 78 | 1014.5 | |
| 20260507060019 | 10 | 0.0 | 0.0 | 0.00 | 1.17 | 0.00 | 78 | 1014.5 | |
| 20260507055503 | 10 | 0.0 | 0.0 | 0.00 | 1.17 | 0.00 | 76 | 1014.4 | |
| 20260507055003 | 10 | 0.0 | 0.0 | 0.00 | 1.17 | 0.00 | 75 | 1014.7 | |
| 20260507054510 | 10 | 0.0 | 0.0 | 0.00 | 1.17 | 0.00 | 75 | 1014.6 | |
| 20260507054004 | 10 | 0.0 | 0.0 | 0.00 | 1.17 | 0.00 | 74 | 1014.7 | |
| 20260507053505 | 10 | 0.0 | 0.0 | 0.00 | 1.17 | 0.00 | 74 | 1014.5 | |
| 20260507053018 | 10 | 0.0 | 0.0 | 0.00 | 1.17 | 0.00 | 74 | 1014.7 | |
| 20260507052504 | 10 | 0.0 | 0.0 | 0.00 | 1.19 | 0.00 | 74 | 1014.7 | |
| 20260507052009 | 10 | 0.0 | 0.0 | 0.00 | 1.24 | 0.00 | 73 | 1014.8 | |
| 20260507051524 | 10 | 0.0 | 0.0 | 0.00 | 1.30 | 0.00 | 73 | 1014.9 | |
| 20260507051003 | 10 | 0.0 | 0.0 | 0.00 | 1.30 | 0.00 | 73 | 1014.8 | |
| 20260507050506 | 10 | 0.0 | 0.0 | 0.00 | 1.30 | 0.00 | 72 | 1015.0 | |
| 20260507050034 | 10 | 0.0 | 0.0 | 0.00 | 1.30 | 0.00 | 73 | 1014.9 | |
| 20260507045509 | 11 | 0.0 | 0.0 | 0.00 | 1.30 | 0.00 | 74 | 1014.9 | |
| 20260507045006 | 11 | 0.0 | 0.0 | 0.00 | 1.30 | 0.00 | 74 | 1014.8 | |
| 20260507044533 | 11 | 0.0 | 0.0 | 0.00 | 1.30 | 0.00 | 74 | 1014.8 | |
| 20260507044005 | 11 | 0.0 | 0.0 | 0.00 | 1.30 | 0.00 | 74 | 1014.8 | |
| 20260507043505 | 11 | 0.0 | 0.0 | 0.00 | 1.30 | 0.00 | 74 | 1014.9 | |
| 20260507043014 | 11 | 0.0 | 0.0 | 0.00 | 1.30 | 0.00 | 75 | 1014.9 | |
| 20260507042506 | 11 | 0.0 | 0.0 | 0.00 | 1.30 | 0.00 | 75 | 1015.0 | |
| 20260507042005 | 11 | 0.0 | 0.0 | 0.00 | 1.30 | 0.00 | 74 | 1015.2 | |
| 20260507041527 | 11 | 0.0 | 0.0 | 0.00 | 1.30 | 0.00 | 74 | 1015.2 | |
| 20260507041005 | 11 | 0.0 | 0.0 | 0.00 | 1.30 | 0.00 | 75 | 1015.2 | |
| 20260507040511 | 11 | 0.0 | 0.0 | 0.00 | 1.30 | 0.00 | 75 | 1015.1 | |
| 20260507040025 | 11 | 0.0 | 0.0 | 0.00 | 1.30 | 0.00 | 75 | 1015.0 | |
| 20260507035506 | 11 | 0.0 | 0.0 | 0.00 | 1.30 | 1.30 | 76 | 1014.9 | |
| 20260507035009 | 11 | 0.0 | 0.0 | 0.00 | 1.30 | 1.30 | 75 | 1014.8 | |
| 20260507034528 | 11 | 0.0 | 0.0 | 0.00 | 1.30 | 1.30 | 75 | 1014.7 | |
| 20260507034005 | 11 | 0.0 | 0.0 | 0.00 | 1.30 | 1.30 | 76 | 1014.7 | |
| 20260507033505 | 11 | 0.0 | 0.0 | 0.00 | 1.30 | 1.30 | 75 | 1014.7 | |
| 20260507033029 | 11 | 0.0 | 0.0 | 0.00 | 1.30 | 1.30 | 75 | 1014.6 | |
| 20260507032505 | 11 | 0.0 | 0.0 | 0.00 | 1.30 | 1.30 | 75 | 1014.6 | |
| 20260507032006 | 11 | 0.0 | 0.0 | 0.00 | 1.30 | 1.30 | 75 | 1014.6 | |
| 20260507031524 | 11 | 0.0 | 0.0 | 0.00 | 1.30 | 1.30 | 75 | 1014.6 | |
| 20260507031011 | 11 | 0.0 | 0.0 | 0.00 | 1.30 | 1.30 | 75 | 1014.7 | |
| 20260507030508 | 11 | 0.0 | 0.0 | 0.00 | 1.30 | 1.30 | 75 | 1014.5 | |
| 20260507030019 | 11 | 0.0 | 0.0 | 0.00 | 1.30 | 1.30 | 76 | 1014.5 | |
| 20260507025506 | 11 | 0.0 | 0.0 | 0.00 | 1.30 | 1.30 | 76 | 1014.4 | |
| 20260507025009 | 11 | 0.0 | 0.0 | 0.00 | 1.30 | 1.30 | 76 | 1014.3 | |
| 20260507024515 | 11 | 0.0 | 0.0 | 0.00 | 1.30 | 1.30 | 76 | 1014.4 | |
| 20260507024009 | 11 | 0.0 | 0.0 | 0.00 | 1.30 | 1.30 | 76 | 1014.5 | |
| 20260507023516 | 12 | 0.0 | 0.0 | 0.00 | 1.30 | 1.30 | 76 | 1014.5 | |
| 20260507023025 | 12 | 0.0 | 0.0 | 0.00 | 1.30 | 1.30 | 76 | 1014.3 | |
| 20260507022509 | 12 | 0.0 | 0.0 | 0.00 | 1.30 | 1.30 | 77 | 1014.4 | |
| 20260507022010 | 12 | 0.0 | 0.0 | 0.00 | 1.30 | 1.30 | 77 | 1014.3 | |
| 20260507021525 | 12 | 0.0 | 0.0 | 0.00 | 1.30 | 1.30 | 77 | 1014.3 | |
| 20260507021003 | 12 | 0.0 | 0.0 | 0.00 | 1.30 | 1.30 | 78 | 1014.5 | |
| 20260507020508 | 12 | 0.0 | 0.0 | 0.00 | 1.30 | 1.30 | 78 | 1014.3 | |
| 20260507020007 | 12 | 0.0 | 0.0 | 0.00 | 1.30 | 1.30 | 78 | 1014.4 | |
| 20260507015504 | 12 | 0.0 | 0.0 | 0.00 | 1.30 | 1.30 | 78 | 1014.5 | |
| 20260507015002 | 12 | 0.0 | 0.0 | 0.00 | 1.30 | 1.30 | 78 | 1014.5 | |
| 20260507014508 | 12 | 0.0 | 0.0 | 0.00 | 1.30 | 1.30 | 77 | 1014.5 | |
| 20260507014003 | 12 | 0.0 | 0.0 | 0.00 | 1.30 | 1.30 | 76 | 1014.4 | |
| 20260507013502 | 12 | 0.0 | 0.0 | 0.00 | 1.30 | 1.30 | 76 | 1014.0 | |
| 20260507013003 | 12 | 0.0 | 0.0 | 0.00 | 1.30 | 1.30 | 76 | 1013.8 | |
| 20260507012502 | 12 | 0.0 | 0.0 | 0.00 | 1.30 | 1.30 | 76 | 1013.8 | |
| 20260507012002 | 12 | 0.0 | 0.0 | 0.00 | 1.30 | 1.30 | 76 | 1013.7 | |
| 20260507011517 | 12 | 0.0 | 0.0 | 0.00 | 1.30 | 1.30 | 76 | 1013.8 | |
| 20260507011002 | 12 | 0.0 | 0.0 | 0.00 | 1.30 | 1.30 | 76 | 1013.7 | |
| 20260507010503 | 12 | 0.0 | 0.0 | 0.00 | 1.30 | 1.30 | 76 | 1013.7 | |
| 20260507010014 | 12 | 0.0 | 0.0 | 0.00 | 1.30 | 1.30 | 75 | 1013.9 | |
| 20260507005504 | 12 | 0.0 | 0.0 | 0.00 | 1.30 | 1.30 | 77 | 1013.2 | |
| 20260507005002 | 12 | 0.0 | 0.0 | 0.00 | 1.30 | 1.30 | 77 | 1013.6 | |
| 20260507004529 | 12 | 0.0 | 0.0 | 0.00 | 1.30 | 1.30 | 76 | 1013.3 | |
| 20260507004006 | 13 | 0.0 | 0.0 | 0.00 | 1.30 | 1.30 | 77 | 1013.2 | |
| 20260507003503 | 13 | 0.0 | 0.0 | 0.00 | 1.30 | 1.30 | 76 | 1013.6 | |
| 20260507003004 | 13 | 0.0 | 0.0 | 0.00 | 1.30 | 1.30 | 76 | 1013.5 | |
| 20260507002502 | 13 | 0.0 | 0.0 | 0.00 | 1.30 | 1.30 | 77 | 1013.0 | |
| 20260507002003 | 13 | 0.0 | 0.0 | 0.00 | 1.30 | 1.30 | 77 | 1013.1 | |
| 20260507001507 | 13 | 0.0 | 0.0 | 0.00 | 1.30 | 1.30 | 77 | 1013.1 | |
| 20260507001005 | 13 | 0.0 | 0.0 | 0.00 | 1.30 | 1.30 | 78 | 1012.9 | |
| 20260507000505 | 13 | 0.0 | 0.0 | 0.00 | 1.30 | 1.30 | 78 | 1013.1 | |
| 20260507000004 | 13 | 0.0 | 0.0 | 0.00 | 1.30 | 1.30 | 78 | 1013.1 | |
| 20260506235504 | 13 | 0.0 | 0.0 | 0.00 | 1.30 | 1.30 | 78 | 1013.4 | |
| 20260506235004 | 13 | 0.0 | 0.0 | 0.00 | 1.30 | 1.30 | 79 | 1013.0 | |
| 20260506234520 | 14 | 0.0 | 0.0 | 0.00 | 1.30 | 1.30 | 79 | 1012.7 | |
| 20260506234004 | 14 | 0.0 | 0.0 | 0.00 | 1.30 | 1.30 | 79 | 1012.6 | |
| 20260506233509 | 14 | 0.0 | 0.0 | 0.00 | 1.30 | 1.30 | 79 | 1012.3 | |
| 20260506233018 | 14 | 0.0 | 0.0 | 0.00 | 1.30 | 1.30 | 79 | 1012.3 | |
| 20260506232502 | 14 | 0.0 | 0.0 | 0.00 | 1.30 | 1.30 | 78 | 1012.9 | |
| 20260506232002 | 14 | 0.0 | 0.0 | 0.00 | 1.30 | 1.30 | 78 | 1012.4 | |
| 20260506231514 | 14 | 0.0 | 0.0 | 0.00 | 1.30 | 1.30 | 79 | 1012.7 | |
| 20260506231003 | 14 | 0.0 | 0.0 | 0.00 | 1.30 | 1.30 | 77 | 1012.8 | |
| 20260506230504 | 15 | 0.0 | 0.0 | 0.00 | 1.30 | 1.30 | 78 | 1012.6 | |
| 20260506230009 | 15 | 0.0 | 0.0 | 0.00 | 1.30 | 1.30 | 77 | 1012.3 | |
| 20260506225503 | 15 | 0.0 | 0.0 | 0.00 | 1.30 | 1.30 | 76 | 1012.2 | |
| 20260506225003 | 15 | 0.0 | 0.0 | 0.00 | 1.30 | 1.30 | 76 | 1012.0 | |
| 20260506224509 | 15 | 0.0 | 0.0 | 0.00 | 1.30 | 1.30 | 77 | 1012.4 | |
| 20260506224003 | 15 | 0.0 | 0.0 | 0.00 | 1.30 | 1.30 | 77 | 1012.8 | |
| 20260506223503 | 15 | 0.0 | 0.0 | 0.00 | 1.30 | 1.30 | 76 | 1012.9 | |
| 20260506223006 | 15 | 0.0 | 0.0 | 0.00 | 1.30 | 1.30 | 77 | 1012.8 | |
| 20260506222504 | 15 | 0.0 | 0.0 | 0.00 | 1.30 | 1.30 | 77 | 1012.9 | |
| 20260506222008 | 15 | 0.0 | 0.0 | 0.00 | 1.30 | 1.30 | 76 | 1013.2 | |
| 20260506221524 | 15 | 0.0 | 0.0 | 0.00 | 1.30 | 1.30 | 77 | 1013.1 | |
| 20260506221004 | 15 | 0.0 | 0.0 | 0.00 | 1.30 | 1.30 | 76 | 1013.0 | |
| 20260506220504 | 15 | 0.0 | 0.0 | 0.00 | 1.30 | 1.30 | 73 | 1012.9 | |
| 20260506220006 | 15 | 0.0 | 0.0 | 0.00 | 1.30 | 1.30 | 75 | 1012.9 | |
| 20260506215507 | 15 | 0.0 | 0.0 | 0.00 | 1.30 | 1.30 | 73 | 1012.6 | |
| 20260506215008 | 15 | 0.0 | 0.0 | 0.00 | 1.30 | 1.30 | 73 | 1012.4 | |
| 20260506214514 | 15 | 0.0 | 0.0 | 0.00 | 1.30 | 1.30 | 75 | 1012.5 | |
| 20260506214008 | 15 | 0.0 | 0.0 | 0.00 | 1.30 | 1.30 | 75 | 1012.4 | |
| 20260506213507 | 15 | 0.0 | 0.0 | 0.00 | 1.30 | 1.30 | 74 | 1012.6 | |
| 20260506213017 | 15 | 0.0 | 0.0 | 0.00 | 1.30 | 1.30 | 73 | 1012.7 | |
| 20260506212507 | 15 | 0.0 | 0.0 | 0.00 | 1.30 | 1.30 | 74 | 1012.5 | |
| 20260506212006 | 15 | 0.0 | 0.0 | 0.00 | 1.30 | 1.30 | 76 | 1012.4 | |
| 20260506211515 | 15 | 0.0 | 0.0 | 0.00 | 1.30 | 1.30 | 75 | 1012.1 | |
| 20260506211008 | 15 | 0.0 | 0.0 | 0.00 | 1.30 | 1.30 | 75 | 1012.2 | |
| 20260506210507 | 15 | 0.0 | 0.0 | 0.00 | 1.30 | 1.30 | 74 | 1012.2 | |
| 20260506210009 | 15 | 0.0 | 0.0 | 0.00 | 1.30 | 1.30 | 71 | 1012.3 | |
| 20260506205507 | 15 | 0.0 | 0.0 | 0.00 | 1.30 | 1.30 | 72 | 1012.4 | |
| 20260506205004 | 15 | 0.0 | 0.0 | 0.00 | 1.30 | 1.30 | 73 | 1012.6 | |
| 20260506204507 | 15 | 0.0 | 0.0 | 0.00 | 1.30 | 1.30 | 76 | 1012.6 | |
| 20260506204003 | 15 | 0.0 | 0.0 | 0.00 | 1.30 | 1.30 | 75 | 1012.5 | |
| 20260506203507 | 15 | 0.0 | 0.0 | 0.00 | 1.30 | 1.30 | 74 | 1012.5 | |
| 20260506203021 | 15 | 0.0 | 0.0 | 0.00 | 1.30 | 1.30 | 73 | 1012.7 | |
| 20260506202504 | 15 | 0.0 | 0.0 | 0.00 | 1.30 | 1.30 | 75 | 1012.7 | |
| 20260506202004 | 15 | 0.0 | 0.0 | 0.00 | 1.30 | 1.30 | 74 | 1012.7 | |
| 20260506201530 | 15 | 0.0 | 0.0 | 0.00 | 1.30 | 1.30 | 77 | 1012.7 | |
| 20260506201010 | 15 | 0.0 | 0.0 | 0.00 | 1.30 | 1.30 | 77 | 1012.6 | |
| 20260506200505 | 15 | 0.0 | 0.0 | 0.00 | 1.30 | 1.30 | 76 | 1012.5 | |
| 20260506200017 | 15 | 0.0 | 0.0 | 0.00 | 1.30 | 1.30 | 75 | 1012.7 | |
| 20260506195509 | 15 | 0.0 | 0.0 | 0.00 | 1.30 | 1.30 | 75 | 1012.8 | |
| 20260506195002 | 15 | 0.0 | 0.0 | 0.00 | 1.30 | 1.30 | 78 | 1012.8 | |
| 20260506194516 | 15 | 0.0 | 0.0 | 0.00 | 1.30 | 1.30 | 81 | 1012.7 | |
| 20260506194008 | 15 | 0.0 | 0.0 | 0.00 | 1.30 | 1.30 | 75 | 1012.7 | |
| 20260506193504 | 15 | 0.0 | 0.0 | 0.00 | 1.30 | 1.30 | 77 | 1012.5 | |
| 20260506193009 | 14 | 0.0 | 0.0 | 0.00 | 1.30 | 1.30 | 78 | 1012.4 | |
| 20260506192505 | 14 | 0.0 | 0.0 | 0.00 | 1.30 | 1.30 | 81 | 1012.4 | |
| 20260506192008 | 14 | 0.0 | 0.0 | 0.00 | 1.30 | 1.30 | 82 | 1012.4 | |
| 20260506191509 | 14 | 0.0 | 0.0 | 0.00 | 1.30 | 1.30 | 81 | 1012.4 | |
| 20260506191007 | 14 | 0.0 | 0.0 | 0.00 | 1.30 | 1.30 | 81 | 1012.5 | |
| 20260506190507 | 14 | 0.0 | 0.0 | 0.00 | 1.30 | 1.30 | 80 | 1012.5 | |
| 20260506190020 | 14 | 0.0 | 0.0 | 0.00 | 1.30 | 1.30 | 79 | 1012.5 | |
| 20260506185505 | 14 | 0.0 | 0.0 | 0.00 | 1.30 | 1.30 | 80 | 1012.4 | |
| 20260506185005 | 14 | 0.0 | 0.0 | 0.00 | 1.30 | 1.30 | 81 | 1012.3 | |
| 20260506184523 | 14 | 0.0 | 0.0 | 0.00 | 1.30 | 1.30 | 82 | 1012.5 | |
| 20260506184004 | 14 | 0.0 | 0.0 | 0.00 | 1.30 | 1.30 | 82 | 1012.4 | |
| 20260506183506 | 14 | 0.0 | 0.0 | 0.00 | 1.30 | 1.30 | 82 | 1012.2 | |
| 20260506183029 | 14 | 0.0 | 0.0 | 0.00 | 1.30 | 1.30 | 81 | 1012.3 | |
| 20260506182507 | 14 | 0.0 | 0.0 | 0.00 | 1.30 | 1.30 | 82 | 1012.4 | |
| 20260506182003 | 14 | 0.0 | 0.0 | 0.00 | 1.30 | 1.30 | 82 | 1012.4 | |
| 20260506181512 | 14 | 0.0 | 0.0 | 0.00 | 1.30 | 1.30 | 81 | 1012.1 | |
| 20260506181006 | 14 | 0.0 | 0.0 | 0.00 | 1.30 | 1.30 | 81 | 1012.2 | |
| 20260506180506 | 14 | 0.0 | 0.0 | 0.00 | 1.30 | 1.30 | 82 | 1012.2 | |
| 20260506180018 | 14 | 0.0 | 0.0 | 0.00 | 1.30 | 1.30 | 82 | 1012.2 | |
| 20260506175504 | 14 | 0.0 | 0.0 | 0.00 | 1.30 | 1.30 | 81 | 1012.2 | |
| 20260506175007 | 14 | 0.0 | 0.0 | 0.00 | 1.30 | 1.30 | 82 | 1012.3 | |
| 20260506174512 | 14 | 0.0 | 0.0 | 0.00 | 1.30 | 1.30 | 82 | 1012.4 | |
| 20260506174006 | 14 | 0.0 | 0.0 | 0.00 | 1.30 | 1.30 | 82 | 1012.2 | |
| 20260506173505 | 13 | 0.0 | 0.0 | 0.00 | 1.30 | 1.30 | 82 | 1012.3 | |
| 20260506173024 | 13 | 0.0 | 0.0 | 0.00 | 1.30 | 1.30 | 83 | 1012.4 | |
| 20260506172503 | 13 | 0.0 | 0.0 | 0.00 | 1.30 | 1.30 | 85 | 1012.5 | |
| 20260506172009 | 13 | 0.0 | 0.0 | 0.00 | 1.30 | 1.30 | 83 | 1012.3 | |
| 20260506171530 | 13 | 0.0 | 0.0 | 0.00 | 1.30 | 1.30 | 84 | 1012.4 | |
| 20260506171006 | 13 | 0.0 | 0.0 | 0.00 | 1.30 | 1.30 | 85 | 1012.5 | |
| 20260506170502 | 13 | 0.0 | 0.0 | 0.00 | 1.30 | 1.30 | 85 | 1012.6 | |
| 20260506170015 | 13 | 0.0 | 0.0 | 0.00 | 1.30 | 1.30 | 86 | 1012.8 | |
| 20260506165510 | 13 | 0.0 | 0.0 | 0.00 | 1.30 | 1.30 | 85 | 1012.7 | |
| 20260506165008 | 13 | 0.0 | 0.0 | 0.00 | 1.30 | 1.30 | 84 | 1012.8 | |
| 20260506164506 | 13 | 0.0 | 0.0 | 0.00 | 1.30 | 1.30 | 88 | 1012.9 | |
| 20260506164004 | 12 | 0.0 | 0.0 | 0.00 | 1.30 | 1.30 | 88 | 1012.9 | |
| 20260506163502 | 12 | 0.0 | 0.0 | 0.00 | 1.30 | 1.30 | 87 | 1012.8 | |
| 20260506163002 | 12 | 0.0 | 0.0 | 0.00 | 1.30 | 1.30 | 87 | 1012.8 | |
| 20260506162502 | 12 | 0.0 | 0.0 | 0.00 | 1.30 | 1.30 | 89 | 1012.8 | |
| 20260506162002 | 12 | 0.0 | 0.0 | 0.00 | 1.30 | 1.30 | 89 | 1012.7 | |
| 20260506161507 | 12 | 0.0 | 0.0 | 0.00 | 1.30 | 1.30 | 89 | 1012.6 | |
| 20260506161002 | 12 | 0.0 | 0.0 | 0.00 | 1.30 | 1.30 | 89 | 1012.4 | |
| 20260506160503 | 12 | 0.0 | 0.0 | 0.00 | 1.30 | 1.30 | 90 | 1012.3 | |
| 20260506160016 | 12 | 0.0 | 0.0 | 0.00 | 1.30 | 1.30 | 90 | 1012.5 | |
| 20260506155502 | 11 | 0.0 | 0.0 | 0.00 | 1.30 | 1.30 | 90 | 1012.6 | |
| 20260506155003 | 11 | 0.0 | 0.0 | 0.00 | 1.30 | 1.30 | 91 | 1012.5 | |
| 20260506154508 | 11 | 0.0 | 0.0 | 0.00 | 1.30 | 1.30 | 90 | 1012.4 | |
| 20260506154006 | 11 | 0.0 | 0.0 | 0.00 | 1.30 | 1.30 | 90 | 1012.4 | |
| 20260506153503 | 11 | 0.0 | 0.0 | 0.00 | 1.30 | 1.30 | 90 | 1012.4 | |
| 20260506153003 | 11 | 0.0 | 0.0 | 0.00 | 1.30 | 1.30 | 91 | 1012.4 | |
| 20260506152504 | 11 | 0.0 | 0.0 | 0.00 | 1.30 | 1.30 | 90 | 1012.4 | |
| 20260506152003 | 11 | 0.0 | 0.0 | 0.00 | 1.30 | 1.30 | 90 | 1012.3 | |
| 20260506151505 | 11 | 0.0 | 0.0 | 0.00 | 1.30 | 1.30 | 91 | 1012.0 | |
| 20260506151002 | 11 | 0.0 | 0.0 | 0.00 | 1.30 | 1.30 | 91 | 1011.9 | |
| 20260506150503 | 11 | 0.0 | 0.0 | 0.00 | 1.30 | 1.30 | 91 | 1012.0 | |
| 20260506150004 | 11 | 0.0 | 0.0 | 0.03 | 1.30 | 1.30 | 91 | 1011.9 | |
| 20260506145503 | 11 | 0.0 | 0.0 | 0.03 | 1.30 | 1.30 | 91 | 1011.9 | |
| 20260506145003 | 11 | 0.0 | 0.0 | 0.03 | 1.30 | 1.30 | 91 | 1011.8 | |
| 20260506144512 | 11 | 0.0 | 0.0 | 0.03 | 1.30 | 1.30 | 91 | 1011.6 | |
| 20260506144002 | 11 | 0.0 | 0.0 | 0.03 | 1.30 | 1.30 | 91 | 1011.5 | |
| 20260506143503 | 11 | 0.0 | 0.0 | 0.03 | 1.30 | 1.30 | 91 | 1011.6 | |
| 20260506143024 | 11 | 0.0 | 0.0 | 0.03 | 1.30 | 1.30 | 92 | 1011.5 |